User: anonymous   Login
Location: Ariel
(45.9570°N, 122.5700°W)
Time: 01:49:57
(UTC-07:00)
Language:

XW-2B - Orbit

View from above orbital plane
View from above orbital plane
View from above satellite
View from above satellite

Ground track
Ground track

The orbit data is extracted from the following two-line orbital elements,

1 40911U 15049N   19110.85695105 +.00000811 +00000-0 +45930-4 0  9990
2 40911 097.4671 114.2272 0015676 046.9434 037.9687 15.15709356197992
Epoch (UTC): 20 April 2019 20:34:00
Eccentricity: 0.0015676
inclination: 97.4671°
perigee height: 508 km
apogee height: 529 km
right ascension of ascending node: 114.2272°
argument of perigee: 46.9434°
revolutions per day: 15.15709356
mean anomaly at epoch: 37.9687°
orbit number at epoch: 19799

The dashed part of the orbit path shows where the satellite is in the earth's shadow,  

DLR